Total_Precipitation_Accumulation
0.04 0.02 0.03 0.04 0.03 0.03 0.03 0.02 0.02 0.02 0.02 0.02 0.02 0.02 0.02 0.02 0.00 0.00 0.00 0.00 0.00 0.00 0.00 0.00 0.00 0.00 0.00 0.00 0.00 0.00 0.00 0.00 0.00 0.01 0.15 0.23 0.08 0.24 0.13 0.11 0.27 0.31 0.50 0.60 0.86
0.08 0.06 0.05 0.04 0.04 0.03 0.02 0.02 0.02 0.02 0.03 0.03 0.01 0.02 0.02 0.02 0.00 0.00 0.00 0.00 0.00 0.00 0.00 0.00 0.00 0.00 0.00 0.00 0.00 0.00 0.00 0.00 0.00 0.06 0.24 0.13 0.03 0.19 0.09 0.19 0.54 0.38 0.72 0.66 0.43
0.05 0.04 0.04 0.04 0.05 0.04 0.03 0.03 0.02 0.02 0.02 0.01 0.01 0.02 0.02 0.01 0.00 0.00 0.00 0.00 0.00 0.00 0.00 0.00 0.00 0.00 0.00 0.00 0.00 0.00 0.00 0.00 0.02 0.11 0.04 0.02 0.07 0.10 0.32 0.45 0.52 1.13 0.48 0.41 0.49
0.03 0.03 0.04 0.04 0.04 0.03 0.03 0.03 0.03 0.02 0.02 0.01 0.01 0.02 0.02 0.00 0.00 0.00 0.00 0.00 0.00 0.00 0.00 0.00 0.00 0.00 0.00 0.00 0.00 0.00 0.00 0.00 0.01 0.01 0.01 0.00 0.01 0.11 0.35 0.80 0.30 0.32 0.38 0.47 0.75
0.04 0.03 0.03 0.04 0.04 0.03 0.04 0.04 0.03 0.03 0.02 0.01 0.01 0.02 0.01 0.00 0.00 0.00 0.00 0.00 0.00 0.00 0.00 0.00 0.00 0.00 0.00 0.00 0.00 0.00 0.00 0.00 0.01 0.04 0.03 0.00 0.04 0.12 0.30 0.11 0.11 0.16 0.38 0.55 0.56
0.05 0.04 0.03 0.04 0.05 0.05 0.05 0.04 0.03 0.02 0.02 0.02 0.02 0.02 0.00 0.00 0.00 0.00 0.00 0.00 0.00 0.00 0.00 0.00 0.00 0.00 0.00 0.00 0.00 0.00 0.00 0.00 0.00 0.01 0.01 0.02 0.05 0.09 0.39 0.12 0.12 0.12 0.32 0.56 0.58
0.08 0.07 0.06 0.07 0.08 0.09 0.08 0.06 0.04 0.03 0.03 0.02 0.02 0.01 0.00 0.00 0.00 0.00 0.00 0.00 0.00 0.00 0.00 0.00 0.00 0.00 0.00 0.00 0.00 0.00 0.00 0.02 0.03 0.01 0.00 0.05 0.19 0.35 0.13 0.08 0.07 0.03 0.04 0.36 0.86
0.19 0.14 0.12 0.11 0.13 0.13 0.12 0.09 0.06 0.05 0.03 0.02 0.02 0.00 0.00 0.00 0.00 0.00 0.00 0.00 0.00 0.00 0.00 0.00 0.00 0.00 0.00 0.00 0.00 0.00 0.00 0.01 0.04 0.03 0.02 0.15 0.48 0.05 0.03 0.05 0.04 0.01 0.01 0.06 0.10
0.28 0.19 0.13 0.12 0.13 0.14 0.14 0.11 0.09 0.05 0.03 0.01 0.01 0.00 0.00 0.00 0.00 0.00 0.00 0.00 0.00 0.00 0.00 0.00 0.00 0.00 0.00 0.00 0.00 0.00 0.00 0.00 0.01 0.01 0.01 0.05 0.33 0.12 0.05 0.09 0.08 0.02 0.01 0.01 0.01
0.41 0.31 0.22 0.19 0.18 0.17 0.14 0.10 0.08 0.04 0.01 0.00 0.01 0.00 0.00 0.00 0.00 0.00 0.00 0.00 0.00 0.00 0.00 0.00 0.00 0.00 0.00 0.00 0.01 0.00 0.00 0.00 0.02 0.02 0.01 0.01 0.03 0.25 0.12 0.05 0.27 0.09 0.04 0.04 0.00
0.32 0.22 0.14 0.13 0.18 0.16 0.09 0.09 0.08 0.05 0.02 0.00 0.00 0.00 0.00 0.00 0.00 0.00 0.00 0.00 0.00 0.00 0.01 0.00 0.00 0.00 0.00 0.00 0.00 0.00 0.00 0.00 0.00 0.01 0.00 0.00 0.01 0.01 0.00 0.00 0.03 0.05 0.07 0.02 0.00
0.42 0.34 0.26 0.24 0.23 0.13 0.05 0.03 0.02 0.02 0.01 0.00 0.00 0.00 0.00 0.00 0.00 0.00 0.00 0.00 0.00 0.01 0.02 0.02 0.01 0.00 0.00 0.00 0.00 0.00 0.00 0.00 0.00 0.00 0.00 0.00 0.00 0.00 0.00 0.00 0.01 0.01 0.11 0.03 0.00
0.34 0.32 0.33 0.36 0.31 0.17 0.05 0.04 0.02 0.02 0.05 0.01 0.00 0.00 0.00 0.00 0.00 0.00 0.00 0.00 0.00 0.03 0.03 0.02 0.01 0.00 0.01 0.00 0.00 0.00 0.00 0.00 0.00 0.00 0.00 0.00 0.00 0.00 0.01 0.01 0.02 0.00 0.00 0.00 0.00
0.24 0.27 0.29 0.31 0.22 0.05 0.06 0.03 0.01 0.01 0.13 0.02 0.00 0.00 0.00 0.00 0.00 0.00 0.00 0.00 0.00 0.02 0.08 0.07 0.00 0.02 0.00 0.00 0.00 0.00 0.00 0.00 0.00 0.00 0.00 0.00 0.00 0.00 0.00 0.01 0.00 0.00 0.00 0.00 0.02
0.25 0.24 0.22 0.17 0.10 0.07 0.04 0.02 0.01 0.10 0.35 0.02 0.00 0.00 0.00 0.00 0.00 0.00 0.00 0.00 0.00 0.01 0.09 0.09 0.03 0.04 0.02 0.00 0.00 0.01 0.00 0.00 0.00 0.00 0.05 0.02 0.00 0.03 0.05 0.02 0.00 0.01 0.02 0.02 0.03
0.33 0.27 0.29 0.17 0.09 0.05 0.04 0.05 0.18 0.59 0.42 0.01 0.00 0.00 0.00 0.00 0.00 0.00 0.00 0.00 0.00 0.01 0.01 0.01 0.02 0.06 0.03 0.00 0.00 0.00 0.02 0.00 0.00 0.02 0.07 0.01 0.01 0.01 0.01 0.03 0.07 0.14 0.11 0.08 0.07
0.33 0.34 0.31 0.17 0.17 0.07 0.05 0.25 0.58 0.43 0.04 0.00 0.00 0.00 0.00 0.00 0.00 0.00 0.00 0.00 0.00 0.00 0.00 0.00 0.01 0.01 0.01 0.01 0.01 0.02 0.11 0.18 0.19 0.09 0.04 0.00 0.02 0.02 0.06 0.16 0.28 0.32 0.14 0.08 0.06
0.49 0.48 0.31 0.15 0.15 0.15 0.41 0.84 0.61 0.07 0.01 0.01 0.00 0.00 0.00 0.00 0.00 0.00 0.00 0.00 0.00 0.00 0.01 0.06 0.06 0.00 0.01 0.00 0.02 0.02 0.08 0.26 0.36 0.18 0.08 0.15 0.09 0.18 0.36 0.38 0.44 0.32 0.24 0.20 0.24
1.40 0.78 0.49 0.26 0.14 0.22 0.86 1.11 0.21 0.02 0.00 0.01 0.01 0.00 0.00 0.00 0.00 0.00 0.00 0.01 0.02 0.01 0.06 0.11 0.07 0.02 0.01 0.01 0.02 0.08 0.11 0.10 0.50 0.29 0.17 0.12 0.11 0.58 1.05 0.79 1.22 1.33 0.82 0.67 0.55
1.45 1.18 0.74 0.50 0.48 0.83 1.86 0.76 0.03 0.01 0.00 0.00 0.02 0.02 0.01 0.01 0.01 0.01 0.02 0.04 0.05 0.01 0.01 0.06 0.18 0.04 0.02 0.04 0.01 0.07 0.12 0.42 0.70 0.57 0.25 0.01 0.06 0.41 0.67 0.73 0.80 0.68 0.52 0.40 0.31
2.48 2.29 1.08 0.90 1.58 2.41 1.80 0.38 0.04 0.00 0.00 0.01 0.01 0.04 0.05 0.06 0.06 0.06 0.12 0.16 0.04 0.03 0.01 0.02 0.14 0.14 0.12 0.13 0.07 0.10 0.30 0.35 0.48 0.29 0.37 0.20 0.40 0.77 0.65 0.86 0.64 0.20 0.18 0.20 0.22
3.69 3.07 1.25 1.43 3.06 2.22 0.71 0.18 0.04 0.02 0.01 0.01 0.00 0.02 0.08 0.08 0.07 0.11 0.11 0.23 0.14 0.09 0.08 0.12 0.14 0.08 0.07 0.06 0.06 0.16 0.24 0.46 0.96 0.64 0.39 0.46 0.59 0.93 0.76 0.40 0.69 0.32 0.24 0.11 0.13
4.62 3.11 2.39 2.15 2.86 1.14 0.31 0.12 0.06 0.03 0.02 0.02 0.02 0.02 0.06 0.09 0.14 0.11 0.12 0.09 0.15 0.25 0.28 0.24 0.32 0.22 0.15 0.18 0.16 0.24 0.33 0.46 0.62 0.86 0.61 0.76 0.68 0.95 0.72 0.71 0.92 0.48 0.10 0.07 0.16
4.55 4.02 4.40 3.55 1.52 0.61 0.51 0.31 0.09 0.03 0.02 0.03 0.03 0.04 0.06 0.06 0.14 0.16 0.16 0.13 0.12 0.18 0.30 0.41 0.19 0.18 0.19 0.26 0.29 0.31 0.21 0.31 0.92 1.39 0.75 0.38 0.42 1.14 1.31 1.20 0.61 0.20 0.15 0.15 0.22
6.08 3.15 1.86 2.57 1.25 0.51 0.44 0.45 0.27 0.19 0.07 0.05 0.07 0.12 0.10 0.08 0.09 0.11 0.15 0.22 0.15 0.25 0.42 0.51 0.35 0.13 0.08 0.08 0.17 0.22 0.26 0.29 0.58 0.63 0.97 0.52 0.68 0.76 0.84 1.01 0.80 0.37 0.23 0.24 0.28
6.01 2.11 1.08 0.82 0.57 0.69 0.83 0.54 0.19 0.18 0.26 0.13 0.14 0.08 0.10 0.11 0.06 0.13 0.16 0.16 0.25 0.29 0.52 0.51 0.67 0.36 0.13 0.03 0.11 0.21 0.11 0.18 0.30 0.41 0.43 0.33 0.61 0.50 0.53 0.59 0.77 0.60 0.41 0.31 0.29
5.06 1.61 1.59 1.15 0.65 1.06 0.97 0.53 0.29 0.29 0.33 0.07 0.13 0.19 0.13 0.08 0.19 0.21 0.26 0.22 0.25 0.29 0.59 0.44 0.58 0.57 0.59 0.09 0.17 0.24 0.13 0.10 0.19 0.54 0.47 0.69 0.50 0.30 0.45 0.56 0.47 0.59 0.54 0.58 0.43